UAE725 OMDB-HTDA

Flight info

Callsign UAE725
Flight time N/A
Altitude 34000
Route ANVIX R401 GIDIS G783 ELUDA/N0483F360 G783 UKRAG/N0480F350 L710 ITKUN/N0483F370 L710 KUKDI/N0481F360 B400 VEDET UL437 AVEDA/N0482F380 UL437 ELAVA DUKBO1C
Aircraft B77W/H-SDE1E2E3FGHIJ2J3J4J5M1RWXY/LB1D1

Departure

Time 2026-04-26 14:55
Airport Dubai International Airport (OMDB)

Arrival

Time N/A
Airport Julius Nyerere International Airport (HTDA)
Time Latitude Longitude Altitude Speed Heading
2026-04-26 14:08 25.25053 55.35988 30 ft 0 kts 211°
2026-04-26 14:37 25.25053 55.35987 30 ft 0 kts 211°
2026-04-26 14:37 25.25052 55.35987 30 ft 0 kts 211°
2026-04-26 14:39 25.25063 55.35995 29 ft 3 kts 211°
2026-04-26 14:39 25.25085 55.36008 29 ft 3 kts 210°
2026-04-26 14:39 25.25104 55.36024 30 ft 3 kts 230°
2026-04-26 14:39 25.25116 55.36047 30 ft 3 kts 250°
2026-04-26 14:40 25.25119 55.36071 31 ft 3 kts 277°
2026-04-26 14:40 25.25123 55.36058 30 ft 0 kts 292°
2026-04-26 14:44 25.25129 55.36046 30 ft 6 kts 300°
2026-04-26 14:44 25.25169 55.35972 30 ft 15 kts 301°
2026-04-26 14:44 25.25234 55.35855 30 ft 17 kts 301°
2026-04-26 14:45 25.25299 55.35739 28 ft 17 kts 301°
2026-04-26 14:45 25.25342 55.35661 27 ft 17 kts 302°
2026-04-26 14:45 25.25427 55.35510 25 ft 17 kts 301°
2026-04-26 14:45 25.25495 55.35386 23 ft 20 kts 301°
2026-04-26 14:46 25.25570 55.35251 20 ft 20 kts 301°
2026-04-26 14:46 25.25632 55.35157 19 ft 12 kts 332°
2026-04-26 14:46 25.25704 55.35175 21 ft 10 kts 31°
2026-04-26 14:46 25.25785 55.35230 20 ft 20 kts 32°
2026-04-26 14:47 25.25905 55.35309 12 ft 15 kts 31°
2026-04-26 14:47 25.25987 55.35397 8 ft 17 kts 64°
2026-04-26 14:47 25.25987 55.35532 5 ft 18 kts 112°
2026-04-26 14:47 25.25925 55.35649 7 ft 16 kts 121°
2026-04-26 14:48 25.25869 55.35748 12 ft 15 kts 121°
2026-04-26 14:48 25.25808 55.35858 18 ft 17 kts 121°
2026-04-26 14:48 25.25736 55.35989 22 ft 22 kts 121°
2026-04-26 14:48 25.25659 55.36128 24 ft 19 kts 121°
2026-04-26 14:49 25.25591 55.36249 28 ft 16 kts 121°
2026-04-26 14:49 25.25530 55.36358 33 ft 20 kts 121°
2026-04-26 14:49 25.25459 55.36486 38 ft 17 kts 121°
2026-04-26 14:49 25.25397 55.36599 42 ft 17 kts 121°
2026-04-26 14:50 25.25327 55.36725 50 ft 19 kts 121°
2026-04-26 14:50 25.25266 55.36837 55 ft 14 kts 121°
2026-04-26 14:50 25.25221 55.36919 58 ft 10 kts 121°
2026-04-26 14:50 25.25181 55.36993 60 ft 13 kts 121°
2026-04-26 14:51 25.25124 55.37097 59 ft 16 kts 121°
2026-04-26 14:51 25.25063 55.37206 58 ft 15 kts 121°
2026-04-26 14:51 25.25004 55.37312 55 ft 16 kts 121°
2026-04-26 14:51 25.24942 55.37421 53 ft 16 kts 122°
2026-04-26 14:52 25.24880 55.37531 50 ft 17 kts 122°
2026-04-26 14:52 25.24817 55.37644 48 ft 17 kts 121°
2026-04-26 14:52 25.24754 55.37756 46 ft 17 kts 121°
2026-04-26 14:52 25.24703 55.37851 43 ft 9 kts 121°
2026-04-26 14:53 25.24673 55.37906 43 ft 5 kts 116°
2026-04-26 14:53 25.24684 55.37949 42 ft 5 kts 56°
2026-04-26 14:53 25.24687 55.37953 41 ft 1 kts 50°
2026-04-26 14:53 25.24688 55.37955 41 ft 0 kts 49°
2026-04-26 14:54 25.24698 55.37965 41 ft 7 kts 44°
2026-04-26 14:54 25.24759 55.38008 39 ft 11 kts 28°
2026-04-26 14:54 25.24790 55.38020 38 ft 4 kts 351°
2026-04-26 14:54 25.24814 55.38001 38 ft 5 kts 316°
2026-04-26 14:55 25.24873 55.37907 39 ft 34 kts 301°
2026-04-26 14:55 25.25157 55.37392 45 ft 122 kts 301°
2026-04-26 14:55 25.25736 55.36350 216 ft 185 kts 300°
2026-04-26 14:55 25.26429 55.35105 1232 ft 195 kts 301°
2026-04-26 14:56 25.27072 55.33957 2465 ft 170 kts 302°
2026-04-26 14:56 25.27662 55.32908 3246 ft 165 kts 301°
2026-04-26 14:56 25.28262 55.31822 3825 ft 172 kts 301°
2026-04-26 14:56 25.28887 55.30609 3964 ft 187 kts 291°
2026-04-26 14:57 25.29106 55.29131 4517 ft 197 kts 266°
2026-04-26 14:57 25.28764 55.27731 5415 ft 193 kts 251°
2026-04-26 14:57 25.28220 55.26348 6087 ft 200 kts 250°
2026-04-26 14:57 25.27627 55.24926 6722 ft 207 kts 249°
2026-04-26 14:58 25.27017 55.23488 6943 ft 208 kts 248°
2026-04-26 14:58 25.26382 55.21997 6972 ft 212 kts 248°
2026-04-26 14:58 25.25751 55.20510 6983 ft 225 kts 248°
2026-04-26 14:58 25.25057 55.18903 6971 ft 234 kts 243°
2026-04-26 14:59 25.23969 55.17545 6964 ft 242 kts 218°
2026-04-26 14:59 25.22351 55.16814 6964 ft 258 kts 191°
2026-04-26 14:59 25.20515 55.16804 6968 ft 268 kts 176°
2026-04-26 14:59 25.19265 55.17197 7083 ft 289 kts 154°
2026-04-26 15:00 25.17384 55.19252 8286 ft 295 kts 122°
2026-04-26 15:00 25.16395 55.21314 8961 ft 307 kts 117°
2026-04-26 15:00 25.15427 55.23438 9847 ft 310 kts 118°
2026-04-26 15:00 25.14437 55.25550 10753 ft 312 kts 118°
2026-04-26 15:01 25.13412 55.27696 11599 ft 317 kts 118°
2026-04-26 15:01 25.12386 55.29833 12429 ft 320 kts 119°
2026-04-26 15:01 25.11324 55.32039 13257 ft 325 kts 119°
2026-04-26 15:01 25.10274 55.34254 14133 ft 327 kts 117°
2026-04-26 15:02 25.09329 55.36557 14797 ft 333 kts 115°
2026-04-26 15:02 25.08384 55.38922 14972 ft 335 kts 115°
2026-04-26 15:02 25.07427 55.41280 14943 ft 336 kts 116°
2026-04-26 15:02 25.06493 55.43635 14881 ft 342 kts 114°
2026-04-26 15:03 25.05519 55.46188 14884 ft 374 kts 114°
2026-04-26 15:03 25.04456 55.48962 14880 ft 405 kts 114°
2026-04-26 15:03 25.03328 55.51895 14877 ft 415 kts 114°
2026-04-26 15:03 25.02208 55.54768 14892 ft 417 kts 116°
2026-04-26 15:04 25.01851 55.55557 14902 ft 417 kts 119°
2026-04-26 15:04 25.00395 55.58353 14856 ft 415 kts 122°
2026-04-26 15:04 24.98891 55.61138 14914 ft 423 kts 122°
2026-04-26 15:04 24.97365 55.63960 15660 ft 428 kts 122°
2026-04-26 15:05 24.95850 55.66761 16771 ft 423 kts 122°
2026-04-26 15:05 24.94847 55.68616 17405 ft 423 kts 123°
2026-04-26 15:05 24.92621 55.72240 18270 ft 431 kts 128°
2026-04-26 15:05 24.90827 55.74943 18890 ft 439 kts 129°
2026-04-26 15:06 24.89008 55.77679 19590 ft 444 kts 129°
2026-04-26 15:06 24.87159 55.80460 20270 ft 449 kts 129°
2026-04-26 15:06 24.85313 55.83237 20959 ft 454 kts 129°
2026-04-26 15:06 24.83407 55.86084 21597 ft 459 kts 131°
2026-04-26 15:07 24.78687 55.90852 22813 ft 459 kts 151°
2026-04-26 15:07 24.75854 55.92533 23381 ft 458 kts 161°
2026-04-26 15:07 24.72861 55.93661 23936 ft 457 kts 170°
2026-04-26 15:08 24.69705 55.94246 24445 ft 457 kts 179°
2026-04-26 15:08 24.66493 55.94255 24943 ft 458 kts 188°
2026-04-26 15:08 24.63333 55.93710 25473 ft 457 kts 198°
2026-04-26 15:08 24.60280 55.92621 26014 ft 457 kts 206°
2026-04-26 15:09 24.57420 55.91019 26529 ft 457 kts 215°
2026-04-26 15:09 24.54863 55.88977 27009 ft 458 kts 224°
2026-04-26 15:09 24.52488 55.86595 27505 ft 462 kts 226°
2026-04-26 15:09 24.50102 55.84159 28048 ft 466 kts 226°
2026-04-26 15:10 24.47709 55.81755 28560 ft 470 kts 226°
2026-04-26 15:10 24.46074 55.80131 28835 ft 474 kts 226°
2026-04-26 15:10 24.40264 55.74437 28916 ft 474 kts 225°
2026-04-26 15:11 24.35316 55.69642 28911 ft 474 kts 225°
2026-04-26 15:11 24.30346 55.64851 28905 ft 475 kts 225°
2026-04-26 15:12 24.24854 55.60726 28901 ft 481 kts 210°
2026-04-26 15:12 24.18415 55.58358 28907 ft 489 kts 200°
2026-04-26 15:13 24.11817 55.56388 28906 ft 489 kts 199°
2026-04-26 15:13 24.05219 55.54421 28902 ft 490 kts 199°
2026-04-26 15:14 23.98588 55.52445 28903 ft 490 kts 199°
2026-04-26 15:14 23.91925 55.50467 28895 ft 491 kts 199°
2026-04-26 15:15 23.85286 55.48499 28892 ft 490 kts 199°
2026-04-26 15:15 23.78630 55.46522 28888 ft 490 kts 199°
2026-04-26 15:16 23.72024 55.44562 28886 ft 490 kts 199°
2026-04-26 15:16 23.65383 55.42593 28882 ft 491 kts 199°
2026-04-26 15:17 23.59842 55.40951 28882 ft 491 kts 199°
2026-04-26 15:17 23.51904 55.39352 28873 ft 500 kts 185°
2026-04-26 15:18 23.44896 55.40321 28876 ft 509 kts 169°
2026-04-26 15:18 23.38058 55.42379 28875 ft 509 kts 167°
2026-04-26 15:19 23.31219 55.44587 28871 ft 509 kts 167°
2026-04-26 15:19 23.24391 55.46770 28870 ft 509 kts 167°
2026-04-26 15:20 23.17520 55.48952 28871 ft 511 kts 167°
2026-04-26 15:20 23.10674 55.51117 28869 ft 509 kts 167°
2026-04-26 15:21 23.03819 55.53279 28870 ft 509 kts 167°
2026-04-26 15:21 22.96942 55.55403 28871 ft 509 kts 167°
2026-04-26 15:22 22.90072 55.57510 28973 ft 518 kts 167°
2026-04-26 15:22 22.86553 55.58588 29587 ft 520 kts 167°
2026-04-26 15:22 22.83075 55.59656 30433 ft 516 kts 167°
2026-04-26 15:23 22.79566 55.60731 31152 ft 515 kts 167°
2026-04-26 15:23 22.76093 55.61795 31622 ft 518 kts 167°
2026-04-26 15:23 22.72602 55.62863 32044 ft 522 kts 167°
2026-04-26 15:23 22.69062 55.63946 32539 ft 524 kts 166°
2026-04-26 15:24 22.65551 55.65020 33085 ft 525 kts 167°
2026-04-26 15:24 22.62007 55.66103 33710 ft 524 kts 166°
2026-04-26 15:24 22.58475 55.67185 34400 ft 521 kts 166°
2026-04-26 15:24 22.54944 55.68266 34815 ft 523 kts 166°
2026-04-26 15:25 22.49069 55.70063 34834 ft 520 kts 166°
2026-04-26 15:25 22.40881 55.72566 34839 ft 519 kts 166°
2026-04-26 15:26 22.33823 55.74720 34838 ft 519 kts 166°
2026-04-26 15:26 22.26828 55.76807 34832 ft 518 kts 170°
2026-04-26 15:27 22.19654 55.77774 34834 ft 516 kts 178°
2026-04-26 15:27 22.12465 55.78485 34832 ft 515 kts 178°
2026-04-26 15:28 22.05212 55.79201 34832 ft 522 kts 178°
2026-04-26 15:28 22.01533 55.79564 34829 ft 533 kts 177°
2026-04-26 15:28 21.97756 55.79938 34832 ft 541 kts 177°
2026-04-26 15:29 21.90199 55.80688 34828 ft 539 kts 177°
2026-04-26 15:30 21.75146 55.82179 34822 ft 540 kts 177°
2026-04-26 15:30 21.67626 55.82923 34826 ft 540 kts 177°
2026-04-26 15:31 21.56345 55.84031 34831 ft 540 kts 177°
2026-04-26 15:32 21.46260 55.85020 34835 ft 541 kts 177°
2026-04-26 15:32 21.37461 55.85882 34840 ft 542 kts 177°
2026-04-26 15:33 21.29884 55.86623 34844 ft 541 kts 177°
2026-04-26 15:33 21.22350 55.87359 34844 ft 541 kts 177°
2026-04-26 15:34 21.14778 55.88096 34841 ft 541 kts 177°
2026-04-26 15:34 21.07168 55.88837 34836 ft 542 kts 176°
2026-04-26 15:35 20.99601 55.89572 34837 ft 542 kts 176°
2026-04-26 15:35 20.91998 55.90311 34845 ft 543 kts 176°
2026-04-26 15:36 20.84378 55.91050 34834 ft 542 kts 176°
2026-04-26 15:36 20.76829 55.91782 34839 ft 543 kts 176°
2026-04-26 15:37 20.69221 55.92519 34844 ft 543 kts 176°
2026-04-26 15:37 20.61610 55.93256 34848 ft 543 kts 176°
2026-04-26 15:38 20.53989 55.93993 34848 ft 543 kts 176°
2026-04-26 15:38 20.46437 55.94723 34848 ft 544 kts 176°
2026-04-26 15:39 20.38825 55.95458 34851 ft 544 kts 176°
2026-04-26 15:39 20.32519 55.96066 34853 ft 543 kts 176°
2026-04-26 15:40 20.23618 55.96916 34855 ft 543 kts 176°
2026-04-26 15:40 20.16031 55.97638 34857 ft 543 kts 176°
2026-04-26 15:41 20.08410 55.98362 34862 ft 544 kts 176°
2026-04-26 15:41 20.00756 55.98669 34866 ft 544 kts 180°
2026-04-26 15:42 19.93125 55.98812 34879 ft 543 kts 180°
2026-04-26 15:42 19.85513 55.98973 34878 ft 543 kts 180°
2026-04-26 15:43 19.77898 55.99147 34879 ft 544 kts 180°
2026-04-26 15:44 19.66439 55.99421 34879 ft 545 kts 180°
2026-04-26 15:44 19.54982 55.99477 34878 ft 542 kts 188°
2026-04-26 15:45 19.47621 55.97560 34879 ft 538 kts 205°
2026-04-26 15:45 19.44244 55.95836 34882 ft 534 kts 212°
2026-04-26 15:46 19.34467 55.89981 34889 ft 533 kts 213°
2026-04-26 15:46 19.29037 55.86704 34896 ft 534 kts 213°
2026-04-26 15:47 19.18201 55.80159 34903 ft 536 kts 213°
2026-04-26 15:48 19.11683 55.76224 34905 ft 535 kts 213°
2026-04-26 15:48 19.05115 55.72260 34905 ft 535 kts 213°
2026-04-26 15:49 18.98587 55.68325 34907 ft 534 kts 213°
2026-04-26 15:49 18.92055 55.64391 34912 ft 535 kts 213°
2026-04-26 15:50 18.85548 55.60474 34904 ft 535 kts 213°
2026-04-26 15:50 18.78999 55.56536 34904 ft 536 kts 213°
2026-04-26 15:51 18.72436 55.52593 34907 ft 536 kts 213°
2026-04-26 15:51 18.65896 55.48667 34913 ft 537 kts 213°
2026-04-26 15:52 18.59335 55.44733 34919 ft 536 kts 213°
2026-04-26 15:52 18.52754 55.40789 34918 ft 536 kts 213°
2026-04-26 15:53 18.46374 55.36974 34923 ft 513 kts 213°
2026-04-26 15:53 18.40133 55.33239 34931 ft 516 kts 213°
2026-04-26 15:54 18.33795 55.29451 34934 ft 513 kts 213°
2026-04-26 15:54 18.27477 55.25679 34938 ft 515 kts 213°
2026-04-26 15:55 18.21207 55.21940 34938 ft 515 kts 213°
2026-04-26 15:55 18.14897 55.18194 34940 ft 516 kts 210°
2026-04-26 15:56 18.08230 55.15062 34956 ft 519 kts 206°
2026-04-26 15:56 18.01498 55.12046 34963 ft 520 kts 206°
2026-04-26 15:57 17.94817 55.09052 34971 ft 519 kts 206°
2026-04-26 15:57 17.88099 55.06042 34964 ft 519 kts 205°
2026-04-26 15:58 17.81408 55.03045 34971 ft 520 kts 206°
2026-04-26 15:58 17.74695 55.00039 34980 ft 520 kts 206°
2026-04-26 15:59 17.67960 54.97026 34996 ft 520 kts 206°
2026-04-26 15:59 17.61212 54.94009 35013 ft 521 kts 205°
2026-04-26 16:00 17.54514 54.91017 35030 ft 520 kts 205°
2026-04-26 16:00 17.47747 54.87996 35045 ft 520 kts 205°
2026-04-26 16:01 17.41023 54.84997 35074 ft 521 kts 205°
2026-04-26 16:01 17.34319 54.82009 35101 ft 520 kts 205°
2026-04-26 16:02 17.27620 54.78972 35112 ft 519 kts 210°
2026-04-26 16:02 17.21403 54.75020 35112 ft 518 kts 216°
2026-04-26 16:03 17.15331 54.70948 35052 ft 515 kts 216°
2026-04-26 16:03 17.09183 54.66829 34999 ft 517 kts 216°
2026-04-26 16:04 17.03016 54.62701 34957 ft 531 kts 216°
2026-04-26 16:04 16.96670 54.58460 34928 ft 539 kts 216°
2026-04-26 16:05 16.90308 54.54214 34927 ft 537 kts 216°
2026-04-26 16:05 16.83938 54.49966 34915 ft 536 kts 215°
2026-04-26 16:06 16.77563 54.45715 34917 ft 538 kts 215°
2026-04-26 16:06 16.74111 54.43415 34920 ft 538 kts 216°